Time,TemperatureF,DewpointF,PressureIn,WindDirection,WindDirectionDegrees,WindSpeedMPH,WindSpeedGustMPH,Humidity,HourlyPrecipIn,Conditions,Clouds,dailyrainin,SoftwareType,DateUTC
2013-09-13 00:05:00,57.3,50.0,29.96,NW,308,0.0,3.0,77,0.00,,,0.00,weatherlink.com 1.10,2013-09-13 04:05:00,
2013-09-13 00:20:00,56.5,50.0,29.96,NNW,348,0.0,3.0,79,0.00,,,0.00,weatherlink.com 1.10,2013-09-13 04:20:00,
2013-09-13 00:35:00,56.0,50.0,29.96,North,360,0.0,4.0,81,0.00,,,0.00,weatherlink.com 1.10,2013-09-13 04:35:00,
2013-09-13 00:50:00,55.5,51.0,29.96,NW,323,0.0,3.0,84,0.00,,,0.00,weatherlink.com 1.10,2013-09-13 04:50:00,
2013-09-13 01:05:00,55.3,50.0,29.96,NNW,336,0.0,2.0,83,0.00,,,0.00,weatherlink.com 1.10,2013-09-13 05:05:00,
2013-09-13 01:21:00,54.7,50.0,29.97,NNW,336,0.0,1.0,84,0.00,,,0.00,weatherlink.com 1.10,2013-09-13 05:21:00,
2013-09-13 01:36:00,53.9,50.0,29.96,WNW,294,0.0,2.0,86,0.00,,,0.00,weatherlink.com 1.10,2013-09-13 05:36:00,
2013-09-13 01:51:00,53.5,50.0,29.97,WNW,300,0.0,2.0,87,0.00,,,0.00,weatherlink.com 1.10,2013-09-13 05:51:00,
2013-09-13 02:06:00,53.0,49.0,29.97,WNW,296,0.0,1.0,86,0.00,,,0.00,weatherlink.com 1.10,2013-09-13 06:06:00,
2013-09-13 02:21:00,52.5,49.0,29.97,West,275,2.0,2.0,87,0.00,,,0.00,weatherlink.com 1.10,2013-09-13 06:21:00,
2013-09-13 02:36:00,52.4,49.0,29.97,ESE,109,1.0,3.0,87,0.00,,,0.00,weatherlink.com 1.10,2013-09-13 06:36:00,
2013-09-13 02:51:00,52.3,49.0,29.96,North,360,1.0,4.0,87,0.00,,,0.00,weatherlink.com 1.10,2013-09-13 06:51:00,
2013-09-13 03:06:00,52.7,49.0,29.96,NNW,334,1.0,8.0,86,0.00,,,0.00,weatherlink.com 1.10,2013-09-13 07:06:00,
2013-09-13 03:21:00,52.9,49.0,29.96,NW,317,0.0,3.0,85,0.00,,,0.00,weatherlink.com 1.10,2013-09-13 07:21:00,
2013-09-13 03:36:00,52.8,48.0,29.96,NNW,332,0.0,3.0,85,0.00,,,0.00,weatherlink.com 1.10,2013-09-13 07:36:00,
2013-09-13 03:51:00,53.2,49.0,29.96,North,355,0.0,4.0,85,0.00,,,0.00,weatherlink.com 1.10,2013-09-13 07:51:00,
2013-09-13 04:06:00,53.2,49.0,29.96,WNW,282,0.0,2.0,85,0.00,,,0.00,weatherlink.com 1.10,2013-09-13 08:06:00,
2013-09-13 04:21:00,53.2,48.0,29.97,ENE,69,0.0,5.0,83,0.00,,,0.00,weatherlink.com 1.10,2013-09-13 08:21:00,
2013-09-13 04:36:00,53.1,48.0,29.98,ESE,108,1.0,4.0,83,0.00,,,0.00,weatherlink.com 1.10,2013-09-13 08:36:00,
2013-09-13 04:51:00,52.8,47.0,29.98,SSW,209,1.0,4.0,82,0.00,,,0.00,weatherlink.com 1.10,2013-09-13 08:51:00,
2013-09-13 05:06:00,52.5,47.0,29.98,WSW,248,0.0,1.0,82,0.00,,,0.00,weatherlink.com 1.10,2013-09-13 09:06:00,
2013-09-13 05:21:00,51.4,47.0,29.98,ENE,77,0.0,4.0,84,0.00,,,0.00,weatherlink.com 1.10,2013-09-13 09:21:00,
2013-09-13 05:36:00,51.2,47.0,29.98,NNW,328,0.0,3.0,85,0.00,,,0.00,weatherlink.com 1.10,2013-09-13 09:36:00,
2013-09-13 05:51:00,51.2,46.0,29.98,WSW,248,1.0,4.0,83,0.00,,,0.00,weatherlink.com 1.10,2013-09-13 09:51:00,
2013-09-13 06:06:00,51.1,46.0,29.98,NNW,335,0.0,5.0,82,0.00,,,0.00,weatherlink.com 1.10,2013-09-13 10:06:00,
2013-09-13 06:21:00,51.4,45.0,29.98,ENE,69,2.0,6.0,80,0.00,,,0.00,weatherlink.com 1.10,2013-09-13 10:21:00,
2013-09-13 06:36:00,51.2,46.0,29.99,ENE,74,1.0,5.0,81,0.00,,,0.00,weatherlink.com 1.10,2013-09-13 10:36:00,
2013-09-13 06:51:00,50.8,46.0,30.00,North,5,0.0,3.0,82,0.00,,,0.00,weatherlink.com 1.10,2013-09-13 10:51:00,
2013-09-13 07:06:00,50.8,47.0,30.00,NW,306,0.0,2.0,85,0.00,,,0.00,weatherlink.com 1.10,2013-09-13 11:06:00,
2013-09-13 07:21:00,50.4,46.0,30.01,NW,306,0.0,2.0,84,0.00,,,0.00,weatherlink.com 1.10,2013-09-13 11:21:00,
2013-09-13 07:36:00,50.1,46.0,30.01,North,9,1.0,3.0,86,0.00,,,0.00,weatherlink.com 1.10,2013-09-13 11:36:00,
2013-09-13 07:51:00,50.3,46.0,30.01,NNW,334,0.0,4.0,86,0.00,,,0.00,weatherlink.com 1.10,2013-09-13 11:51:00,
2013-09-13 08:06:00,50.8,47.0,30.01,NNE,13,0.0,4.0,86,0.00,,,0.00,weatherlink.com 1.10,2013-09-13 12:06:00,
2013-09-13 08:21:00,51.8,48.0,30.02,NNE,32,2.0,10.0,85,0.00,,,0.00,weatherlink.com 1.10,2013-09-13 12:21:00,
2013-09-13 08:36:00,52.7,48.0,30.02,NE,43,1.0,9.0,83,0.00,,,0.00,weatherlink.com 1.10,2013-09-13 12:36:00,
2013-09-13 08:51:00,53.4,48.0,30.02,NE,44,3.0,10.0,83,0.00,,,0.00,weatherlink.com 1.10,2013-09-13 12:51:00,
2013-09-13 09:06:00,53.6,48.0,30.03,NE,42,3.0,11.0,80,0.00,,,0.00,weatherlink.com 1.10,2013-09-13 13:06:00,
2013-09-13 09:22:00,53.7,48.0,30.03,North,360,4.0,10.0,81,0.00,,,0.00,weatherlink.com 1.10,2013-09-13 13:22:00,
2013-09-13 09:36:00,53.9,48.0,30.04,ENE,67,1.0,10.0,80,0.00,,,0.00,weatherlink.com 1.10,2013-09-13 13:36:00,
2013-09-13 09:51:00,54.2,48.0,30.04,West,281,3.0,10.0,80,0.00,,,0.00,weatherlink.com 1.10,2013-09-13 13:51:00,
2013-09-13 10:06:00,54.4,48.0,30.04,NNE,24,5.0,11.0,79,0.00,,,0.00,weatherlink.com 1.10,2013-09-13 14:06:00,
2013-09-13 10:22:00,55.1,48.0,30.05,NE,40,2.0,13.0,77,0.00,,,0.00,weatherlink.com 1.10,2013-09-13 14:22:00,
2013-09-13 10:37:00,55.1,48.0,30.05,NE,39,2.0,11.0,78,0.00,,,0.00,weatherlink.com 1.10,2013-09-13 14:37:00,
2013-09-13 10:52:00,55.4,48.0,30.06,North,351,4.0,12.0,77,0.00,,,0.00,weatherlink.com 1.10,2013-09-13 14:52:00,
2013-09-13 11:07:00,55.5,48.0,30.06,East,87,3.0,14.0,77,0.00,,,0.00,weatherlink.com 1.10,2013-09-13 15:07:00,
2013-09-13 11:22:00,56.0,49.0,30.07,WNW,294,4.0,9.0,76,0.00,,,0.00,weatherlink.com 1.10,2013-09-13 15:22:00,
2013-09-13 11:37:00,56.8,50.0,30.07,NE,36,0.0,8.0,77,0.00,,,0.00,weatherlink.com 1.10,2013-09-13 15:37:00,
2013-09-13 11:52:00,56.4,48.0,30.07,NE,38,6.0,8.0,74,0.00,,,0.00,weatherlink.com 1.10,2013-09-13 15:52:00,
2013-09-13 12:07:00,56.5,48.0,30.08,NNW,332,4.0,9.0,74,0.00,,,0.00,weatherlink.com 1.10,2013-09-13 16:07:00,
2013-09-13 12:22:00,56.7,47.0,30.07,NW,306,4.0,11.0,70,0.00,,,0.00,weatherlink.com 1.10,2013-09-13 16:22:00,
2013-09-13 12:37:00,57.4,48.0,30.08,WNW,300,1.0,9.0,70,0.00,,,0.00,weatherlink.com 1.10,2013-09-13 16:37:00,
2013-09-13 12:52:00,59.0,48.0,30.07,NNE,14,4.0,10.0,68,0.00,,,0.00,weatherlink.com 1.10,2013-09-13 16:52:00,
2013-09-13 13:07:00,58.5,47.0,30.07,NE,37,4.0,13.0,65,0.00,,,0.00,weatherlink.com 1.10,2013-09-13 17:07:00,
2013-09-13 13:22:00,59.8,48.0,30.07,North,9,4.0,10.0,65,0.00,,,0.00,weatherlink.com 1.10,2013-09-13 17:22:00,
2013-09-13 13:37:00,60.3,50.0,30.07,ESE,110,4.0,13.0,68,0.00,,,0.00,weatherlink.com 1.10,2013-09-13 17:37:00,
2013-09-13 13:52:00,58.5,47.0,30.07,North,355,5.0,12.0,66,0.00,,,0.00,weatherlink.com 1.10,2013-09-13 17:52:00,
2013-09-13 14:07:00,58.6,46.0,30.07,NE,55,4.0,15.0,64,0.00,,,0.00,weatherlink.com 1.10,2013-09-13 18:07:00,
2013-09-13 14:22:00,58.7,46.0,30.06,NE,36,5.0,11.0,64,0.00,,,0.00,weatherlink.com 1.10,2013-09-13 18:22:00,
2013-09-13 14:37:00,60.0,48.0,30.07,North,11,2.0,12.0,65,0.00,,,0.00,weatherlink.com 1.10,2013-09-13 18:37:00,
2013-09-13 14:52:00,60.1,46.0,30.06,NE,49,4.0,9.0,61,0.00,,,0.00,weatherlink.com 1.10,2013-09-13 18:52:00,
2013-09-13 15:07:00,60.7,49.0,30.06,NNW,327,4.0,15.0,65,0.00,,,0.00,weatherlink.com 1.10,2013-09-13 19:07:00,
2013-09-13 15:22:00,60.4,47.0,30.06,ENE,58,3.0,13.0,61,0.00,,,0.00,weatherlink.com 1.10,2013-09-13 19:22:00,
2013-09-13 15:37:00,60.7,47.0,30.06,NE,40,3.0,12.0,60,0.00,,,0.00,weatherlink.com 1.10,2013-09-13 19:37:00,
2013-09-13 15:52:00,59.0,47.0,30.07,NNW,339,3.0,22.0,64,0.00,,,0.00,weatherlink.com 1.10,2013-09-13 19:52:00,
2013-09-13 16:07:00,59.8,46.0,30.07,NW,315,3.0,14.0,61,0.00,,,0.00,weatherlink.com 1.10,2013-09-13 20:07:00,
2013-09-13 16:22:00,59.7,46.0,30.06,West,273,1.0,10.0,62,0.00,,,0.00,weatherlink.com 1.10,2013-09-13 20:22:00,
2013-09-13 16:37:00,59.9,45.0,30.07,NNW,331,6.0,9.0,59,0.00,,,0.00,weatherlink.com 1.10,2013-09-13 20:37:00,
2013-09-13 16:52:00,59.4,45.0,30.07,North,360,3.0,11.0,60,0.00,,,0.00,weatherlink.com 1.10,2013-09-13 20:52:00,
2013-09-13 17:07:00,60.4,46.0,30.07,North,360,1.0,13.0,59,0.00,,,0.00,weatherlink.com 1.10,2013-09-13 21:07:00,
2013-09-13 17:22:00,60.3,43.0,30.07,NE,38,7.0,20.0,54,0.00,,,0.00,weatherlink.com 1.10,2013-09-13 21:22:00,
2013-09-13 17:37:00,60.6,46.0,30.07,ENE,66,5.0,10.0,58,0.00,,,0.00,weatherlink.com 1.10,2013-09-13 21:37:00,
2013-09-13 17:52:00,58.6,43.0,30.08,NE,35,5.0,9.0,56,0.00,,,0.00,weatherlink.com 1.10,2013-09-13 21:52:00,
2013-09-13 18:07:00,59.5,46.0,30.08,NW,314,4.0,10.0,61,0.00,,,0.00,weatherlink.com 1.10,2013-09-13 22:07:00,
2013-09-13 18:22:00,59.2,44.0,30.09,NE,49,2.0,13.0,58,0.00,,,0.00,weatherlink.com 1.10,2013-09-13 22:22:00,
2013-09-13 18:37:00,58.4,43.0,30.09,NE,36,2.0,9.0,58,0.00,,,0.00,weatherlink.com 1.10,2013-09-13 22:37:00,
2013-09-13 18:52:00,56.8,43.0,30.09,NE,34,2.0,9.0,61,0.00,,,0.00,weatherlink.com 1.10,2013-09-13 22:52:00,
2013-09-13 19:07:00,55.8,42.0,30.10,North,355,3.0,9.0,61,0.00,,,0.00,weatherlink.com 1.10,2013-09-13 23:07:00,
2013-09-13 19:22:00,55.0,43.0,30.10,North,360,0.0,5.0,64,0.00,,,0.00,weatherlink.com 1.10,2013-09-13 23:22:00,
2013-09-13 19:37:00,53.9,44.0,30.10,NNE,30,2.0,3.0,69,0.00,,,0.00,weatherlink.com 1.10,2013-09-13 23:37:00,
2013-09-13 19:52:00,52.7,44.0,30.11,North,11,0.0,3.0,72,0.00,,,0.00,weatherlink.com 1.10,2013-09-13 23:52:00,
2013-09-13 20:07:00,51.9,45.0,30.11,NNW,345,0.0,2.0,76,0.00,,,0.00,weatherlink.com 1.10,2013-09-14 00:07:00,
2013-09-13 20:22:00,51.2,44.0,30.12,NE,54,0.0,3.0,76,0.00,,,0.00,weatherlink.com 1.10,2013-09-14 00:22:00,
2013-09-13 20:37:00,50.7,43.0,30.12,ENE,66,0.0,2.0,76,0.00,,,0.00,weatherlink.com 1.10,2013-09-14 00:37:00,
2013-09-13 20:52:00,50.1,44.0,30.13,ENE,66,0.0,1.0,78,0.00,,,0.00,weatherlink.com 1.10,2013-09-14 00:52:00,
2013-09-13 21:07:00,49.4,43.0,30.13,ENE,66,0.0,1.0,78,0.00,,,0.00,weatherlink.com 1.10,2013-09-14 01:07:00,
2013-09-13 21:22:00,48.8,43.0,30.14,ENE,66,0.0,1.0,79,0.00,,,0.00,weatherlink.com 1.10,2013-09-14 01:22:00,
2013-09-13 21:38:00,48.0,43.0,30.14,ENE,66,0.0,1.0,83,0.00,,,0.00,weatherlink.com 1.10,2013-09-14 01:38:00,
2013-09-13 21:53:00,47.3,43.0,30.14,ENE,66,0.0,1.0,86,0.00,,,0.00,weatherlink.com 1.10,2013-09-14 01:53:00,
2013-09-13 22:08:00,46.8,44.0,30.14,ENE,66,0.0,1.0,89,0.00,,,0.00,weatherlink.com 1.10,2013-09-14 02:08:00,
2013-09-13 22:23:00,46.2,43.0,30.14,ENE,66,1.0,1.0,89,0.00,,,0.00,weatherlink.com 1.10,2013-09-14 02:23:00,
2013-09-13 22:38:00,45.6,43.0,30.14,ENE,66,1.0,1.0,89,0.00,,,0.00,weatherlink.com 1.10,2013-09-14 02:38:00,
2013-09-13 22:53:00,45.1,42.0,30.14,ENE,66,0.0,1.0,89,0.00,,,0.00,weatherlink.com 1.10,2013-09-14 02:53:00,
2013-09-13 23:08:00,44.7,42.0,30.14,ENE,66,0.0,1.0,91,0.00,,,0.00,weatherlink.com 1.10,2013-09-14 03:08:00,
2013-09-13 23:23:00,45.2,44.0,30.15,ENE,66,0.0,1.0,94,0.00,,,0.00,weatherlink.com 1.10,2013-09-14 03:23:00,
2013-09-13 23:38:00,44.6,43.0,30.14,ENE,66,0.0,1.0,92,0.00,,,0.00,weatherlink.com 1.10,2013-09-14 03:38:00,
2013-09-13 23:53:00,44.2,42.0,30.14,ENE,66,1.0,1.0,93,0.00,,,0.00,weatherlink.com 1.10,2013-09-14 03:53:00,